EW3670 Weather Reports


Display with metric or nautical units.
time (UTC)temp
F
wind
direction
speed
MPH
gust
MPH
rain 1hr
in
rain 24hr
in
rain mn
in
humidity
%
barometer
mb
20260903061606 67 300 0.0 0.0 0.00 0.37 0.00 94 1009.7
20260903060105 67 0 0.0 2.0 0.00 0.37 0.00 94 1009.6
20260903054605 67 0 0.0 0.0 0.00 0.37 0.00 94 1009.4
20260903053102 67 0 0.0 0.0 0.00 0.37 0.00 94 1009.3
20260903051617 67 0 0.0 0.0 0.00 0.37 0.00 93 1009.3
20260903050115 67 0 0.0 0.0 0.00 0.37 0.00 93 1009.5
20260903044602 67 0 0.0 0.0 0.00 0.37 0.00 93 1009.7
20260903043208 67 0 0.0 0.0 0.00 0.37 0.00 93 1009.6
20260903041608 67 9 0.0 2.0 0.00 0.37 0.00 93 1009.6
20260903040107 67 0 0.0 0.0 0.01 0.37 0.00 93 1009.7
20260903034559 67 0 0.0 0.0 0.01 0.37 0.37 93 1009.8
20260903033057 67 0 0.0 0.0 0.01 0.37 0.37 93 1009.8
20260903031604 67 0 0.0 2.0 0.01 0.37 0.37 92 1009.8
20260903030103 67 0 0.0 2.0 0.00 0.36 0.36 92 1009.9
20260903024606 67 0 0.0 2.0 0.00 0.36 0.36 92 1009.9
20260903023105 67 79 0.0 2.0 0.00 0.36 0.36 92 1010.0
20260903021604 67 0 0.0 2.0 0.00 0.36 0.36 92 1010.1
20260903020056 67 43 0.0 2.0 0.00 0.36 0.36 92 1009.9
20260903014604 67 336 0.0 2.0 0.00 0.36 0.36 92 1009.7
20260903013109 67 30 0.0 2.0 0.00 0.36 0.36 92 1009.8
20260903011602 67 0 0.0 2.0 0.00 0.36 0.36 92 1010.0
20260903010106 67 24 1.0 3.0 0.00 0.36 0.36 91 1009.9
20260903004606 67 86 0.0 1.0 0.04 0.36 0.36 90 1009.8
20260903003106 67 0 0.0 2.0 0.06 0.36 0.36 91 1010.1
20260903001606 66 0 0.0 2.0 0.12 0.36 0.36 91 1009.9
20260902234616 68 0 0.0 2.0 0.26 0.32 0.32 90 1010.6
20260902233104 68 0 0.0 2.0 0.27 0.30 0.30 90 1010.1
20260902231610 70 285 1.0 4.0 0.22 0.24 0.24 88 1010.3
20260902230107 71 211 1.0 4.0 0.15 0.16 0.16 90 1010.4
20260902224612 72 277 1.0 2.0 0.04 0.05 0.05 89 1010.5
20260902223056 73 244 0.0 2.0 0.03 0.03 0.03 87 1010.3
20260902221608 73 185 0.0 2.0 0.02 0.02 0.02 87 1010.8
20260902220107 73 0 0.0 2.0 0.01 0.01 0.01 85 1010.6
20260902214604 73 106 0.0 2.0 0.01 0.01 0.01 86 1010.7
20260902213118 73 0 0.0 2.0 0.00 0.00 0.00 85 1011.3
20260902211606 74 0 0.0 2.0 0.00 0.00 0.00 83 1011.8
20260902210106 75 0 0.0 3.0 0.00 0.00 0.00 80 1011.3
20260902204602 76 200 1.0 3.0 0.00 0.00 0.00 76 1011.7
20260902203107 76 140 0.0 2.0 0.00 0.00 0.00 78 1012.0
20260902201608 77 0 0.0 2.0 0.00 0.00 0.00 78 1012.4
20260902200135 76 0 0.0 6.0 0.00 0.00 0.00 78 1012.3
20260902194601 76 117 1.0 5.0 0.00 0.00 0.00 79 1012.3
20260902193057 76 144 1.0 6.0 0.00 0.00 0.00 78 1012.5
20260902191614 76 133 1.0 4.0 0.00 0.00 0.00 78 1012.6
20260902190115 77 119 1.0 4.0 0.00 0.00 0.00 77 1013.0
20260902184602 76 130 1.0 4.0 0.00 0.00 0.00 78 1013.3
20260902183116 75 99 2.0 8.0 0.00 0.00 0.00 78 1012.8
20260902181558 75 109 2.0 7.0 0.00 0.00 0.00 78 1012.6
20260902180126 75 163 1.0 6.0 0.00 0.00 0.00 77 1013.1
20260902174600 74 138 2.0 7.0 0.00 0.00 0.00 78 1013.3
20260902173106 74 121 2.0 5.0 0.00 0.00 0.00 78 1013.5
20260902171608 73 63 2.0 6.0 0.00 0.00 0.00 78 1013.9
20260902170103 73 146 3.0 6.0 0.00 0.00 0.00 78 1014.0
20260902164605 73 40 2.0 8.0 0.00 0.00 0.00 77 1014.0
20260902163104 73 146 2.0 7.0 0.00 0.00 0.00 76 1013.8
20260902161605 72 86 3.0 7.0 0.00 0.00 0.00 77 1014.0
20260902160108 71 86 3.0 9.0 0.00 0.00 0.00 76 1013.8
20260902154607 71 153 1.0 8.0 0.00 0.00 0.00 75 1014.2
20260902153100 70 116 1.0 9.0 0.00 0.00 0.00 76 1014.3
20260902151559 69 34 1.0 7.0 0.00 0.00 0.00 75 1014.6
20260902144603 66 31 1.0 7.0 0.00 0.00 0.00 78 1015.1
20260902143105 65 31 1.0 5.0 0.00 0.00 0.00 78 1015.3
20260902141610 64 115 2.0 5.0 0.00 0.00 0.00 79 1015.2
20260902140104 63 98 2.0 6.0 0.00 0.00 0.00 79 1015.7
20260902134605 63 340 1.0 5.0 0.00 0.00 0.00 78 1015.4
20260902133057 63 136 1.0 4.0 0.00 0.00 0.00 79 1015.5
20260902131608 62 142 1.0 6.0 0.00 0.00 0.00 79 1015.7
20260902130103 62 82 2.0 6.0 0.00 0.00 0.00 78 1016.0
20260902124603 62 115 1.0 4.0 0.00 0.00 0.00 78 1016.0
20260902123103 62 131 1.0 6.0 0.00 0.00 0.00 78 1015.5
20260902121604 62 36 1.0 2.0 0.00 0.00 0.00 78 1015.7
20260902120108 62 95 1.0 7.0 0.00 0.00 0.00 78 1015.8
20260902114604 62 106 3.0 8.0 0.00 0.00 0.00 77 1015.7
20260902113113 62 134 1.0 5.0 0.00 0.00 0.00 77 1015.5
20260902111602 62 57 2.0 8.0 0.00 0.00 0.00 77 1015.6
20260902110105 62 5 1.0 6.0 0.00 0.00 0.00 77 1015.4
20260902104601 62 93 2.0 7.0 0.00 0.00 0.00 77 1015.5
20260902103100 62 40 2.0 6.0 0.00 0.00 0.00 77 1015.5
20260902101623 62 163 1.0 4.0 0.00 0.00 0.00 77 1015.7
20260902100101 63 117 2.0 5.0 0.00 0.00 0.00 77 1015.6
20260902094602 63 0 1.0 5.0 0.00 0.00 0.00 77 1015.7
20260902093100 63 57 2.0 6.0 0.00 0.00 0.00 77 1016.1
20260902091605 63 32 0.0 5.0 0.00 0.00 0.00 76 1016.3
20260902090128 63 137 2.0 6.0 0.00 0.00 0.00 76 1015.9
20260902084603 63 36 1.0 4.0 0.00 0.00 0.00 76 1016.0
20260902083053 63 91 1.0 4.0 0.00 0.00 0.00 76 1016.3
20260902081555 63 44 1.0 4.0 0.00 0.00 0.00 77 1016.3
20260902080109 63 59 1.0 3.0 0.00 0.00 0.00 77 1015.9
20260902074558 63 0 1.0 4.0 0.00 0.10 0.00 77 1015.8
20260902073100 63 17 0.0 2.0 0.00 0.10 0.00 76 1015.6
20260902071602 63 51 2.0 4.0 0.00 0.10 0.00 76 1015.3
20260902070106 63 187 1.0 5.0 0.00 0.10 0.00 76 1015.3
20260902064607 64 44 1.0 6.0 0.00 0.12 0.00 75 1015.4
20260902063102 64 126 0.0 4.0 0.00 0.12 0.00 74 1015.6